Location: Caltech
(34.1382°N, 118.1253°W)
Time: 00:47:48
(UTC-07:00)

Saudisat 1A - Visible Passes

Search period start: 24 May 2017 00:00
Search period end: 03 June 2017 00:00
Orbit: 574 x 618 km, 64.6° (Epoch: 23 May)

Date Brightness Start Highest point End Pass type
(mag) Time Alt. Az. Time Alt. Az. Time Alt. Az.
24 May 10.4 20:59:00 10° NNE 21:00:09 11° NE 21:01:16 10° ENE visible
24 May 8.5 22:35:43 10° NNW 22:39:17 57° NW 22:39:17 57° NW visible
25 May 9.8 21:07:18 10° N 21:10:25 19° NE 21:12:27 14° E visible
25 May 9.3 22:45:54 10° NW 22:49:06 34° W 22:49:06 34° W visible
26 May 9.0 21:16:36 10° N 21:20:34 32° NE 21:22:20 24° E visible
26 May 10.1 22:56:34 10° WNW 22:58:59 19° W 22:58:59 19° W visible
27 May 8.1 21:26:16 10° NNW 21:30:38 62° ENE 21:32:16 35° SE visible
28 May 8.1 21:36:13 10° NW 21:40:34 67° WSW 21:42:15 35° S visible
29 May 9.3 21:46:29 10° NW 21:50:24 33° WSW 21:52:18 23° SSW visible
30 May 10.3 21:57:18 10° WNW 22:00:10 17° WSW 22:02:25 12° SW visible
31 May 8.0 20:26:42 10° NNW 20:31:05 71° ENE 20:35:23 10° SE visible
01 Jun 8.5 20:36:42 10° NW 20:41:01 57° WSW 20:45:13 10° SSE visible
02 Jun 9.7 20:47:04 10° NW 20:50:50 29° WSW 20:54:32 10° S visible
